This is the latest recevied weather packets stored in our database for station/object EA1CUE-WX. If no packets are shown the sender has not sent any weather packets the latest 10 day(s).
| Time | Temp. | Humidity | Pressure | Rain* | Wind** | Luminosity | Snow |
|---|---|---|---|---|---|---|---|
| 1787667529 | 17.22° C | 1% | 1015.2 hPa | 0 mm | - | - | - |
| 1787667229 | 17.22° C | 1% | 1015.3 hPa | 0.51 mm | - | - | - |
| 1787666929 | 17.22° C | 1% | 1015.2 hPa | 0.76 mm | - | - | - |
| 1787666629 | 17.22° C | 1% | 1015.3 hPa | 1.27 mm | - | - | - |
| 1787666329 | 17.22° C | 1% | 1015.4 hPa | 1.52 mm | - | - | - |
| 1787666029 | 17.22° C | 1% | 1015.4 hPa | 1.78 mm | - | - | - |
| 1787665729 | 17.22° C | 1% | 1015.4 hPa | 1.78 mm | - | - | - |
| 1787665429 | 17.22° C | 1% | 1015.4 hPa | 1.78 mm | - | - | - |
| 1787665129 | 17.22° C | 1% | 1015.3 hPa | 1.78 mm | - | - | - |
| 1787664831 | 16.67° C | 1% | 1015.4 hPa | 1.78 mm | - | - | - |
| 1787664529 | 16.67° C | 1% | 1015.4 hPa | 1.78 mm | - | - | - |
| 1787664229 | 16.67° C | 1% | 1015.4 hPa | 1.78 mm | - | - | - |
| 1787663929 | 16.67° C | 1% | 1015.4 hPa | 1.78 mm | - | - | - |
| 1787663629 | 16.67° C | 1% | 1015.4 hPa | 1.27 mm | - | - | - |
| 1787663329 | 17.22° C | 1% | 1015.5 hPa | 0.76 mm | - | - | - |
| 1787663029 | 17.22° C | 1% | 1015.5 hPa | 0.51 mm | - | - | - |
| 1787662729 | 17.78° C | 1% | 1015.4 hPa | 0.25 mm | - | - | - |
| 1787662429 | 17.78° C | 1% | 1015.4 hPa | 0 mm | - | - | - |
| 1787662129 | 17.78° C | 1% | 1015.3 hPa | 0 mm | - | - | - |
| 1787661829 | 18.33° C | 1% | 1015.2 hPa | 0 mm | - | - | - |
| 1787661529 | 17.78° C | 1% | 1015.2 hPa | 0 mm | - | - | - |
| 1787661229 | 17.78° C | 1% | 1015.3 hPa | 0 mm | - | - | - |
| 1787660929 | 18.33° C | 1% | 1015.2 hPa | 0 mm | - | - | - |
| 1787660629 | 18.33° C | 1% | 1015.2 hPa | 0 mm | - | - | - |
| 1787660329 | 18.33° C | 1% | 1015.4 hPa | 0 mm | - | - | - |
* Rain latest hour (hover to see other rain measurements)
** Current wind speed in m/s (hover to see current wind gust speed)